Volver al catálogo

IRIDIUM 131

ActivoComunicacionesPO
NORAD 43079·PAYLOAD·🇺🇸 United States

Lanzado Dec 23, 2017 desde Vandenberg Space Force Base

Loading…

Próximos Pases (próximas 24 horas)

TLE

ActualizadoSource: CelesTrak SupGP

Época: Sep 14, 2026, 20:41 UTC

1 43079C 17083K   26257.86215278  .00001671  00000+0  59738-3 0  2579
2 43079  86.3919 284.6924 0002353  94.5284   8.7546 14.34214788    14

Sigue IRIDIUM 131 en tiempo real con AllMySat

Download on the App Store